• Join FlightAware (Why Join?)
  • Login
  • US Flag 
09:38AM EDT


 

Airport Tracker/Info


-or-


 

Live Flight TrackerFlight Track Log ✈ GJS3710 ✈ 30-Apr-2013 ✈ KSTL - KORD

Flight Track Log - Related Links

Times and Time Zones

All times are in EDT time to prevent confusion due to time zone crossing. See the GJS3710 flight status page for this flight to view local times or setup timezone preferences in your user account.

Time Position Orientation Groundspeed Altitude Reporting Facility
EDT Latitude Longitude Course Direction KTS MPH feet Rate Location/Type
07:10PM 38.7333 -90.2833 26° Northeast 185 213 3,800  Level Gateway (St. Louis) TRACON
07:11PM 38.8000 -90.2500 21° North 292 336 5,600 1,020 Climbing Gateway (St. Louis) TRACON
07:12PM 38.8761 -90.1994 27° Northeast 287 330 6,200 1,800 Climbing Kansas City Center
07:13PM 38.9672 -90.1511 22° Northeast 295 339 9,700 2,460 Climbing Kansas City Center
07:14PM 39.0494 -90.1072 23° Northeast 316 364 11,400 2,040 Climbing Kansas City Center
07:15PM 39.4113 -89.9338 26° Northeast  Level FlightAware Approximate
07:15PM 39.1419 -90.0569 23° Northeast 351 404 14,000  Level Kansas City Center
07:16PM 39.2372 -90.0056 23° Northeast 367 422 15,800 1,800 Climbing Kansas City Center
07:17PM 39.3378 -89.9503 23° Northeast 386 444 17,800 1,980 Climbing Kansas City Center
07:18PM 39.4406 -89.8939 23° Northeast 397 457 19,900 1,500 Climbing Kansas City Center
07:19PM 39.5664 -89.8256 23° Northeast 408 470 21,000 480 Climbing Kansas City Center
07:20PM 39.6758 -89.7661 23° Northeast 422 486 21,000  Level Kansas City Center
07:21PM 39.7728 -89.7117 23° Northeast 424 488 21,000  Level Kansas City Center
07:22PM 39.8961 -89.6217 29° Northeast 426 490 21,000  Level Kansas City Center
07:23PM 39.9344 -89.5872 35° Northeast 434 499 21,000  Level Chicago Center
07:24PM 40.0303 -89.4964 36° Northeast 430 495 21,000  Level Chicago Center
07:25PM 40.1281 -89.4033 36° Northeast 436 502 21,000  Level Chicago Center
07:26PM 40.2447 -89.2917 36° Northeast 435 501 21,000  Level Chicago Center
07:27PM 40.3403 -89.1997 36° Northeast 431 496 21,000  Level Chicago Center
07:28PM 40.4358 -89.1083 36° Northeast 427 491 21,000  Level Chicago Center
07:29PM 40.5297 -89.0178 36° Northeast 423 487 21,000  Level Chicago Center
07:30PM 40.6256 -88.9250 36° Northeast 428 493 21,000  Level Chicago Center
07:31PM 40.7269 -88.8233 37° Northeast 412 474 21,000  Level Chicago Center
07:32PM 40.8100 -88.7444 36° Northeast 373 429 21,000  Level Chicago Center
07:33PM 40.9108 -88.7219 10° North 374 430 21,000  Level Chicago Center
07:34PM 41.0097 -88.7833 335° Northwest 363 418 21,000  Level Chicago Center
07:35PM 41.0567 -88.9039 297° West 365 420 21,000 -420 Level Chicago Center
07:36PM 41.1506 -88.9431 343° North 371 427 20,200 -1,500 Descending Chicago Center
07:37PM 41.2475 -88.9061 16° North 368 423 18,000 -2,160 Descending Chicago Center
07:38PM 41.3331 -88.8347 32° Northeast 363 418 15,800 -2,040 Descending Chicago Center
07:39PM 41.4247 -88.7622 31° Northeast 381 438 13,800 -2,160 Descending Chicago Center
07:40PM 41.5247 -88.6631 37° Northeast 373 429 11,400 -1,380 Descending Chicago Center
07:41PM 41.5911 -88.5514 51° Northeast 383 441 11,000 -360 Descending Chicago Center
07:42PM 41.6586 -88.4411 51° Northeast 382 440 10,700 -540 Descending Chicago Center
07:43PM 41.7281 -88.3281 51° Northeast 390 449 10,000 -600 Descending Chicago Center
07:44PM 41.7883 -88.2275 51° Northeast 354 407 9,500 -1,080 Descending Chicago Center
07:45PM 41.8444 -88.1356 51° Northeast 317 365 7,800 -1,500 Descending Chicago Center
07:46PM 41.9000 -88.1000 25° Northeast 311 358 7,000 -540 Descending Chicago TRACON
07:47PM 41.9833 -88.1000 360° North 281 323 7,000 -480 Level Chicago TRACON
07:48PM 42.0500 -88.1333 340° North 241 277 6,100 -900 Descending Chicago TRACON
07:49PM 42.0653 -88.1486 323° Northwest 249 287 5,700 -1,380 Descending Chicago Center
07:50PM 42.1314 -88.1258 14° North 276 318 4,200 -1,320 Descending Chicago Center
07:51PM 42.1208 -88.0664 103° East 220 253 3,000 -840 Descending Chicago Center
07:51PM 42.1000 -88.0500 150° Southeast 159 183 3,000  Level Chicago TRACON